| time (UTC) | temp C | wind direction | speed KPH | gust KPH | rain 1hr cm | rain 24hr cm | rain mn cm | humidity % | barometer mb |
| 20260502151527 | 16 | 355 | 14.5 | 24.1 | 0.00 | 1.65 | 0.00 | 63 | 1022.1 |
| 20260502130107 | 12 | 360 | 11.3 | 17.7 | 0.00 | 3.73 | 0.00 | 76 | 1020.9 |
| 20260502123054 | 11 | 351 | 11.3 | 17.7 | 0.00 | 3.73 | 0.00 | 77 | 1020.5 |
| 20260502121559 | 11 | 347 | 9.7 | 17.7 | 0.00 | 3.73 | 0.00 | 77 | 1020.3 |
| 20260502120107 | 10 | 345 | 14.5 | 25.7 | 0.00 | 4.14 | 0.00 | 77 | 1020.1 |
| 20260502114554 | 10 | 355 | 12.9 | 22.5 | 0.00 | 4.14 | 0.00 | 77 | 1019.9 |
| 20260502113103 | 10 | 5 | 12.9 | 20.9 | 0.00 | 4.14 | 0.00 | 77 | 1019.7 |
| 20260502111546 | 10 | 9 | 11.3 | 19.3 | 0.00 | 4.14 | 0.00 | 77 | 1019.6 |
| 20260502110043 | 10 | 335 | 14.5 | 20.9 | 0.00 | 5.41 | 0.00 | 77 | 1019.5 |
| 20260502104538 | 10 | 341 | 11.3 | 14.5 | 0.00 | 5.41 | 0.00 | 77 | 1019.5 |
| 20260502103058 | 10 | 342 | 6.4 | 9.7 | 0.00 | 5.41 | 0.00 | 77 | 1019.2 |
| 20260502101547 | 10 | 339 | 4.8 | 8.0 | 0.00 | 5.41 | 0.00 | 76 | 1019.1 |
| 20260502091527 | 10 | 9 | 3.2 | 8.0 | 0.00 | 5.92 | 0.00 | 76 | 1018.6 |
| 20260502071518 | 11 | 12 | 16.1 | 25.7 | 0.00 | 6.76 | 0.00 | 75 | 1017.6 |
| 20260502070113 | 12 | 339 | 11.3 | 27.4 | 0.00 | 6.99 | 0.00 | 75 | 1017.4 |
| 20260502064548 | 12 | 10 | 16.1 | 30.6 | 0.00 | 6.99 | 0.00 | 75 | 1017.3 |
| 20260502063054 | 12 | 19 | 14.5 | 24.1 | 0.00 | 6.99 | 0.00 | 75 | 1017.0 |
| 20260502061542 | 12 | 360 | 12.9 | 25.7 | 0.00 | 6.99 | 0.00 | 75 | 1017.6 |
| 20260502060039 | 12 | 5 | 14.5 | 32.2 | 0.00 | 6.99 | 0.00 | 75 | 1017.8 |
| 20260502054550 | 12 | 5 | 12.9 | 22.5 | 0.00 | 6.99 | 0.00 | 76 | 1017.7 |
| 20260502053038 | 13 | 360 | 16.1 | 25.7 | 0.00 | 6.99 | 0.00 | 76 | 1017.5 |
| 20260502051534 | 13 | 11 | 12.9 | 22.5 | 0.00 | 6.99 | 0.00 | 75 | 1017.4 |
| 20260502050029 | 13 | 24 | 12.9 | 20.9 | 0.00 | 7.04 | 6.99 | 75 | 1017.4 |
| 20260502044529 | 13 | 26 | 12.9 | 30.6 | 0.00 | 7.04 | 6.99 | 75 | 1017.5 |
| 20260502043029 | 13 | 22 | 22.5 | 35.4 | 0.00 | 7.04 | 6.99 | 76 | 1017.2 |
| 20260502041527 | 13 | 344 | 19.3 | 30.6 | 0.00 | 7.04 | 6.99 | 76 | 1017.1 |
| 20260502040020 | 13 | 13 | 16.1 | 25.7 | 0.00 | 7.14 | 6.99 | 76 | 1016.9 |
| 20260502034519 | 13 | 30 | 19.3 | 29.0 | 0.00 | 7.14 | 6.99 | 76 | 1016.6 |
| 20260502033018 | 13 | 18 | 12.9 | 25.7 | 0.00 | 7.14 | 6.99 | 76 | 1016.6 |
| 20260502031516 | 13 | 25 | 14.5 | 27.4 | 0.00 | 7.14 | 6.99 | 76 | 1016.5 |
| 20260502030014 | 13 | 32 | 17.7 | 32.2 | 0.00 | 7.14 | 6.99 | 76 | 1016.3 |
| 20260502024511 | 13 | 355 | 22.5 | 33.8 | 0.00 | 7.14 | 6.99 | 76 | 1016.3 |
| 20260502023009 | 13 | 360 | 22.5 | 35.4 | 0.00 | 7.14 | 6.99 | 76 | 1015.8 |
| 20260502021504 | 13 | 349 | 20.9 | 35.4 | 0.00 | 7.14 | 6.99 | 77 | 1015.3 |
| 20260502020002 | 13 | 5 | 20.9 | 35.4 | 0.00 | 7.14 | 6.99 | 77 | 1015.1 |
| 20260502014559 | 14 | 14 | 17.7 | 29.0 | 0.00 | 7.14 | 6.99 | 77 | 1014.9 |
| 20260502013059 | 14 | 19 | 17.7 | 27.4 | 0.00 | 7.14 | 6.99 | 77 | 1014.5 |
| 20260502011553 | 14 | 9 | 14.5 | 25.7 | 0.00 | 7.14 | 6.99 | 77 | 1014.2 |
| 20260502010055 | 14 | 24 | 12.9 | 30.6 | 0.00 | 7.14 | 6.99 | 77 | 1013.8 |
| 20260502004552 | 14 | 36 | 17.7 | 33.8 | 0.00 | 7.14 | 6.99 | 77 | 1013.7 |
| 20260502003048 | 15 | 14 | 17.7 | 30.6 | 0.00 | 7.14 | 6.99 | 78 | 1013.5 |
| 20260502001547 | 15 | 35 | 19.3 | 29.0 | 0.05 | 7.14 | 6.99 | 78 | 1013.3 |
| 20260502000047 | 15 | 11 | 16.1 | 33.8 | 0.10 | 7.14 | 6.99 | 78 | 1013.5 |
| 20260501234549 | 15 | 22 | 12.9 | 35.4 | 0.13 | 7.14 | 6.99 | 78 | 1013.5 |
| 20260501233052 | 15 | 24 | 14.5 | 24.1 | 0.13 | 7.14 | 6.99 | 78 | 1013.7 |
| 20260501231538 | 15 | 342 | 16.1 | 25.7 | 0.08 | 7.09 | 6.93 | 78 | 1013.2 |
| 20260501230041 | 15 | 5 | 19.3 | 32.2 | 0.03 | 7.04 | 6.88 | 78 | 1012.5 |
| 20260501224536 | 15 | 28 | 19.3 | 37.0 | 0.00 | 7.01 | 6.86 | 78 | 1012.7 |
| 20260501223040 | 15 | 326 | 22.5 | 33.8 | 0.00 | 7.01 | 6.86 | 79 | 1012.7 |
| 20260501221533 | 16 | 336 | 17.7 | 25.7 | 0.00 | 7.01 | 6.86 | 79 | 1012.5 |
| 20260501220029 | 16 | 14 | 17.7 | 29.0 | 0.00 | 7.01 | 6.86 | 79 | 1011.9 |
| 20260501214532 | 16 | 355 | 16.1 | 29.0 | 0.00 | 7.01 | 6.86 | 79 | 1011.4 |
| 20260501213028 | 16 | 349 | 17.7 | 25.7 | 0.00 | 7.01 | 6.86 | 79 | 1011.0 |
| 20260501211533 | 16 | 5 | 17.7 | 37.0 | 0.00 | 7.01 | 6.86 | 79 | 1009.7 |
| 20260501210033 | 16 | 12 | 19.3 | 33.8 | 0.00 | 7.01 | 6.86 | 80 | 1009.6 |
| 20260501204525 | 16 | 29 | 19.3 | 30.6 | 0.00 | 7.01 | 6.86 | 80 | 1009.9 |
| 20260501203028 | 16 | 13 | 22.5 | 35.4 | 0.03 | 7.01 | 6.86 | 80 | 1010.0 |
| 20260501201521 | 16 | 38 | 20.9 | 30.6 | 0.08 | 7.01 | 6.86 | 80 | 1010.3 |
| 20260501200023 | 16 | 19 | 16.1 | 30.6 | 0.13 | 7.01 | 6.86 | 80 | 1010.7 |
| 20260501194521 | 16 | 335 | 17.7 | 30.6 | 0.71 | 7.01 | 6.86 | 80 | 1010.8 |
| 20260501193020 | 16 | 31 | 17.7 | 25.7 | 0.79 | 6.99 | 6.83 | 80 | 1010.6 |
| 20260501191519 | 16 | 337 | 14.5 | 32.2 | 0.71 | 6.93 | 6.78 | 80 | 1011.7 |
| 20260501190018 | 16 | 320 | 12.9 | 22.5 | 0.66 | 6.86 | 6.71 | 80 | 1012.3 |
| 20260501184518 | 16 | 298 | 19.3 | 32.2 | 0.08 | 6.27 | 6.12 | 80 | 1010.6 |
| 20260501183017 | 16 | 25 | 14.5 | 24.1 | 0.00 | 6.20 | 6.05 | 80 | 1009.1 |
| 20260501181515 | 16 | 25 | 17.7 | 22.5 | 0.00 | 6.20 | 6.05 | 80 | 1009.4 |
| 20260501180015 | 16 | 17 | 16.1 | 24.1 | 0.03 | 6.20 | 6.05 | 80 | 1009.4 |
| 20260501174513 | 16 | 63 | 12.9 | 22.5 | 0.03 | 6.20 | 6.05 | 80 | 1009.1 |
| 20260501173016 | 16 | 9 | 14.5 | 24.1 | 0.05 | 6.20 | 6.05 | 80 | 1010.2 |
| 20260501171512 | 16 | 36 | 16.1 | 24.1 | 0.15 | 6.20 | 6.05 | 80 | 1009.8 |
| 20260501170011 | 16 | 15 | 16.1 | 27.4 | 0.41 | 6.17 | 6.02 | 80 | 1010.2 |
| 20260501164510 | 16 | 82 | 16.1 | 27.4 | 0.58 | 6.17 | 6.02 | 80 | 1009.6 |
| 20260501163009 | 16 | 28 | 11.3 | 27.4 | 0.61 | 6.15 | 5.99 | 80 | 1011.0 |
| 20260501161507 | 16 | 76 | 17.7 | 29.0 | 0.56 | 6.05 | 5.87 | 80 | 1011.1 |
| 20260501160008 | 16 | 19 | 16.1 | 24.1 | 0.30 | 5.77 | 5.61 | 80 | 1012.3 |
| 20260501154506 | 16 | 9 | 14.5 | 22.5 | 0.15 | 5.59 | 5.44 | 80 | 1011.9 |
| 20260501153009 | 16 | 44 | 11.3 | 24.1 | 0.23 | 5.54 | 5.38 | 80 | 1011.9 |